Weather Roundup
Issued by NWS

Home | Current Version | Previous Version | Graphics & Text | Print | Product List | Glossary Off
Versions: 1 2 3 4 5 6 7 8 9 10 11 12 13 14 15 16 17 18 19 20 21 22 23 24 25 26 27 28 29 30 31 32 33 34 35 36 37 38 39 40 41 42 43 44 45 46 47 48 49 50

000
NZUS93 KARX 240559
HRRWXR

CURRENT HOURLY OBSERVATIONS ACROSS
MUCH OF THE UPPER MISSISSIPPI VALLEY
NATIONAL WEATHER SERVICE LA CROSSE WI
100 AM CDT SAT JUN 24 2017


...SOUTHEAST MINNESOTA...


CITY           SKY/WX    TMP DP  RH WIND       PRES   REMARKS
ROCHESTER      MOCLDY    57  52  83 W10       29.97R
ROCHESTER/MAYO CLOUDY    60  51  73 W13G21    29.96R
WINONA         CLOUDY    61  54  77 NW5       29.93R
AUSTIN         CLEAR     57  48  72 W10       29.98S
ALBERT LEA     CLEAR     57  50  77 W5        30.00S
DODGE CENTER   CLEAR     57  48  72 W9        29.97S
PRESTON        PTCLDY    56  50  80 NW12      29.97R
OWATONNA       PTCLDY    57  48  72 W9G18     29.98S
FARIBAULT      PTCLDY    57  48  72 W10       29.98S
$$

...ELSEWHERE IN MINNESOTA...


CITY           SKY/WX    TMP DP  RH WIND       PRES   REMARKS
MINNEAPOLIS    MOCLDY    62  46  55 NW13      29.95R
INTNL FALLS    CLOUDY    53  50  89 W9        29.87S
DULUTH         CLOUDY    52  49  89 NW12      29.87R
RED WING       MOCLDY    63  48  59 NW6       29.93R
REDWOOD FALLS  CLEAR     54  44  69 NW9       30.03R
MANKATO        PTCLDY    56  50  80 W7        30.00S
WORTHINGTON    CLEAR     52  43  71 W10       30.08R
FAIRMONT       CLEAR     57  46  66 W12       30.03S
$$

...SOUTHWEST WISCONSIN...


CITY           SKY/WX    TMP DP  RH WIND       PRES   REMARKS
LA CROSSE      CLOUDY    68  55  63 NW15      29.91R
PRAIRIE DU CHI CLEAR     62  53  71 W6        29.93R
BOSCOBEL       PTCLDY    64  54  69 VRB3      29.91R
LONE ROCK      NOT AVBL
PLATTEVILLE    CLEAR     61  57  86 W9        29.93R
FORT MC COY    MOCLDY    58  54  86 W3        29.91R
MAUSTON-NEW LI PTCLDY    60  53  76 W6        29.87R
VIROQUA        FAIR      59  55  85 W5        29.92R
WIS DELLS      CLEAR     58  52  79 W7        29.87S
$$

...ELSEWHERE IN WISCONSIN...


CITY           SKY/WX    TMP DP  RH WIND       PRES   REMARKS
MILWAUKEE      CLEAR     66  55  67 W8        29.82R
MADISON        CLEAR     61  55  81 W5        29.87R
GREEN BAY      CLEAR     60  54  80 W8        29.79R
EAU CLAIRE     NOT AVBL
BLACK RVR FLS  CLOUDY    61  50  67 NW8       29.90R
MEDFORD        MOCLDY    56  52  87 NW7       29.86R
WAUSAU         PTCLDY    58  52  80 W9        29.82R
WIS RAPIDS     CLOUDY    60  53  77 NW12      29.86R
MARSHFIELD     CLOUDY    58  52  80 W9        29.85R
RICE LAKE      CLOUDY    59  50  71 W7        29.91R
$$

...NORTHEAST IOWA...


CITY           SKY/WX    TMP DP  RH WIND       PRES   REMARKS
WATERLOO       CLEAR     60  51  72 W7        29.99R
DUBUQUE        PTCLDY    60  54  80 W12       29.95R
DECORAH        CLEAR     59  54  82 W8G14     29.95S
MASON CITY     MOCLDY    57  49  74 W9        30.03R
CHARLES CITY   CLEAR     57  55  94 W7        30.00R
OELWEIN        CLEAR     59  54  82 NW10      29.99R
$$

...ELSEWHERE IN IOWA...


CITY           SKY/WX    TMP DP  RH WIND       PRES   REMARKS
DES MOINES     CLEAR     62  50  64 W5        30.05R
IOWA CITY      CLEAR     62  54  74 W7        30.00R
FORT DODGE     CLEAR     55  46  71 W3        30.06R
MARSHALLTOWN   CLEAR     58  52  80 NW8       30.02R
CEDAR RAPIDS   CLEAR     61  56  83 NW12      29.98R
$$

...NORTHERN ILLINOIS...


CITY           SKY/WX    TMP DP  RH WIND       PRES   REMARKS
CHICAGO-OHARE  CLEAR     66  54  65 W9        29.86R
CHICAGO-MIDWAY CLEAR     68  54  60 NW10      29.87R
MOLINE         CLEAR     65  55  70 W9        29.96R
ROCKFORD       CLEAR     63  56  78 W10       29.90R
PEORIA         CLEAR     65  55  70 NW6       29.94S
$$

NOTE: "FAIR" INDICATES FEW OR NO CLOUDS BELOW 12,000 FEET WITH NO
SIGNIFICANT WEATHER AND/OR OBSTRUCTIONS TO VISIBILITY. WIND
SPEEDS ARE IN MILES-PER-HOUR.




USA.gov is the U.S. government's official web portal to all federal, state and local government web resources and services.